Location: Perryvale
(54.4667°N, 113.3833°W)
Time: 22:47:48
(UTC+00:00)

Vanguard 1 - Pass Details

Date: 30 May 2024
Orbit: 652 x 3825 km, 34.2° (Epoch: 13 June)

Event Time Altitude Azimuth Distance (km) Brightness Sun altitude
Rises 08:20:10 0° 261° (W) 5,626 13.7 -12.9°
Reaches altitude 10° 08:26:15 10° 239° (WSW) 5,266 13.4 -12.8°
Maximum altitude 08:33:15 14° 213° (SSW) 5,517 13.3 -12.5°
Enters shadow 08:36:25 14° 202° (SSW) 5,812 13.3 -12.4°
Drops below altitude 10° 08:41:39 10° 188° (S) 6,454 - -12.2°
Sets 08:51:17 0° 169° (S) 7,864 - -11.7°
